This is the latest recevied weather packets stored in our database for station/object K7CTM. If no packets are shown the sender has not sent any weather packets the latest 10 day(s).
| Time | Temp. | Humidity | Pressure | Rain* | Wind** | Luminosity | Snow |
|---|---|---|---|---|---|---|---|
| 1777707840 | 5° C | 55% | 1027.8 hPa | 0 mm | - | 0 W/m² | - |
| 1777707536 | 5° C | 55% | 1027.9 hPa | 0 mm | - | 0 W/m² | - |
| 1777707232 | 5.56° C | 52% | 1027.7 hPa | 0 mm | - | 0 W/m² | - |
| 1777706931 | 6.11° C | 51% | 1027.7 hPa | 0 mm | - | 0 W/m² | - |
| 1777706628 | 6.11° C | 50% | 1027.9 hPa | 0 mm | - | 0 W/m² | - |
| 1777706325 | 6.11° C | 49% | 1027.8 hPa | 0 mm | - | 0 W/m² | - |
| 1777706023 | 6.67° C | 48% | 1027.9 hPa | 0 mm | - | 0 W/m² | - |
| 1777705721 | 7.22° C | 46% | 1027.9 hPa | 0 mm | - | 0 W/m² | - |
| 1777705418 | 7.78° C | 44% | 1027.7 hPa | 0 mm | - | 0 W/m² | - |
| 1777705117 | 8.33° C | 41% | 1027.8 hPa | 0 mm | - | 0 W/m² | - |
| 1777704815 | 7.78° C | 42% | 1027.8 hPa | 0 mm | - | 0 W/m² | - |
| 1777704512 | 8.33° C | 42% | 1027.8 hPa | 0 mm | - | 0 W/m² | - |
| 1777704211 | 8.89° C | 41% | 1027.7 hPa | 0 mm | - | 0 W/m² | - |
| 1777703907 | 8.33° C | 41% | 1027.7 hPa | 0 mm | - | 0 W/m² | - |
| 1777703605 | 8.89° C | 41% | 1027.8 hPa | 0 mm | - | 0 W/m² | - |
| 1777703302 | 8.89° C | 42% | 1027.9 hPa | 0 mm | - | 0 W/m² | - |
| 1777703000 | 8.33° C | 42% | 1027.8 hPa | 0 mm | - | 0 W/m² | - |
| 1777702698 | 8.33° C | 42% | 1027.9 hPa | 0 mm | - | 0 W/m² | - |
| 1777702396 | 8.89° C | 41% | 1027.9 hPa | 0 mm | - | 0 W/m² | - |
| 1777702091 | 8.89° C | 41% | 1027.9 hPa | 0 mm | - | 0 W/m² | - |
| 1777701787 | 8.33° C | 44% | 1027.9 hPa | 0 mm | - | 0 W/m² | - |
| 1777701485 | 8.33° C | 43% | 1027.8 hPa | 0 mm | - | 0 W/m² | - |
| 1777701182 | 8.33° C | 43% | 1027.9 hPa | 0 mm | - | 0 W/m² | - |
| 1777700881 | 8.89° C | 42% | 1027.8 hPa | 0 mm | - | 0 W/m² | - |
| 1777700579 | 8.89° C | 44% | 1027.9 hPa | 0 mm | - | 0 W/m² | - |
* Rain latest hour (hover to see other rain measurements)
** Current wind speed in m/s (hover to see current wind gust speed)